AU224 Weather Reports


time (UTC)temp
C
wind
direction
speed
KPH
gust
KPH
rain 1hr
cm
rain 24hr
cm
rain mn
cm
humidity
%
barometer
mb
20260902214550 16 0 0.0 0.0 0.00 0.00 0.00 68 1019.4
20260902213049 16 0 0.0 0.0 0.00 0.00 0.00 67 1019.5
20260902211554 16 0 0.0 0.0 0.00 0.00 0.00 66 1019.4
20260902204552 17 0 0.0 0.0 0.00 0.00 0.00 63 1019.1
20260902203105 18 0 0.0 0.0 0.00 0.00 0.00 63 1019.0
20260902201553 18 0 0.0 0.0 0.00 0.00 0.00 61 1019.0
20260902200107 18 0 0.0 0.0 0.00 0.00 0.00 59 1019.0
20260902194559 18 0 0.0 0.0 0.00 0.00 0.00 59 1019.0
20260902193053 19 0 0.0 0.0 0.00 0.00 0.00 57 1019.0
20260902191559 20 0 0.0 0.0 0.00 0.00 0.00 56 1018.9
20260902190116 20 0 0.0 1.6 0.00 0.00 0.00 55 1018.8
20260902184644 20 0 0.0 11.3 0.00 0.00 0.00 53 1018.7
20260902183054 20 0 0.0 0.0 0.00 0.00 0.00 52 1018.4
20260902181608 21 0 0.0 0.0 0.00 0.00 0.00 51 1018.2
20260902180052 21 0 0.0 0.0 0.00 0.00 0.00 50 1018.1
20260902174558 21 0 0.0 0.0 0.00 0.00 0.00 49 1018.0
20260902173055 21 0 0.0 4.8 0.00 0.00 0.00 49 1017.8
20260902171614 21 252 0.0 1.6 0.00 0.00 0.00 49 1017.8
20260902170051 21 0 0.0 3.2 0.00 0.00 0.00 49 1017.8
20260902164603 22 0 0.0 9.7 0.00 0.00 0.00 48 1017.8
20260902163054 22 0 0.0 16.1 0.00 0.00 0.00 46 1017.7
20260902161552 23 360 1.6 17.7 0.00 0.00 0.00 46 1017.6
20260902160053 23 0 0.0 12.9 0.00 0.00 0.00 46 1017.5
20260902154552 23 360 4.8 14.5 0.00 0.00 0.00 44 1017.5
20260902153104 23 157 0.0 14.5 0.00 0.00 0.00 46 1017.6
20260902151600 23 254 8.0 22.5 0.00 0.00 0.00 43 1017.7
20260902150054 23 360 8.0 20.9 0.00 0.00 0.00 43 1017.8
20260902144558 23 161 0.0 14.5 0.00 0.00 0.00 46 1017.7
20260902143048 23 297 6.4 14.5 0.00 0.00 0.00 48 1017.8
20260902141550 24 360 14.5 19.3 0.00 0.00 0.00 43 1017.9
20260902140056 24 270 0.0 9.7 0.00 0.00 0.00 46 1017.8
20260902134609 24 273 9.7 22.5 0.00 0.00 0.00 44 1018.0
20260902133053 24 360 6.4 19.3 0.00 0.00 0.00 43 1018.0
20260902131552 23 0 0.0 12.9 0.00 0.00 0.00 45 1018.0
20260902130053 23 318 8.0 17.7 0.00 0.00 0.00 48 1018.0
20260902124556 24 0 0.0 8.0 0.00 0.00 0.00 47 1018.1
20260902123059 23 0 0.0 19.3 0.00 0.00 0.00 49 1018.2
20260902121553 23 253 0.0 19.3 0.00 0.00 0.00 49 1018.4
20260902114554 23 360 12.9 20.9 0.00 0.00 0.00 49 1018.7
20260902113051 23 0 0.0 14.5 0.00 0.00 0.00 53 1018.6
20260902111551 22 360 0.0 11.3 0.00 0.00 0.00 55 1018.7
20260902110054 22 0 0.0 6.4 0.00 0.00 0.00 56 1018.9
20260902104551 21 288 0.0 6.4 0.00 0.00 0.00 58 1018.9
20260902103046 21 0 0.0 3.2 0.00 0.00 0.00 60 1019.1
20260902101557 21 0 0.0 6.4 0.00 0.00 0.00 59 1019.2
20260902100052 20 0 0.0 3.2 0.00 0.00 0.00 60 1019.3
20260902094555 20 0 0.0 6.4 0.00 0.00 0.00 63 1019.3
20260902093056 19 0 0.0 0.0 0.00 0.00 0.00 63 1019.3
20260902091554 19 269 0.0 4.8 0.00 0.00 0.00 64 1019.3
20260902090053 19 0 0.0 3.2 0.00 0.00 0.00 66 1019.2
20260902084555 18 0 0.0 0.0 0.00 0.00 0.00 64 1019.3
20260902083049 18 0 0.0 0.0 0.00 0.00 0.00 68 1019.2
20260902081556 18 0 0.0 0.0 0.00 0.00 0.00 69 1019.1
20260902080054 17 0 0.0 0.0 0.00 0.00 0.00 69 1018.8
20260902074608 16 0 0.0 0.0 0.00 0.00 0.00 72 1018.8
20260902073044 16 0 0.0 1.6 0.00 0.00 0.00 75 1018.9
20260902071553 15 0 0.0 0.0 0.00 0.00 0.00 76 1018.9
20260902070056 15 0 0.0 0.0 0.00 0.00 0.00 78 1018.9
20260902064551 14 0 0.0 0.0 0.00 0.00 0.00 77 1019.1
20260902063113 13 0 0.0 0.0 0.00 0.00 0.00 80 1019.2
20260902061554 12 0 0.0 0.0 0.00 0.00 0.00 80 1019.1
20260902060106 11 167 0.0 8.0 0.00 0.00 0.00 82 1019.1
20260902054552 10 0 0.0 8.0 0.00 0.00 0.00 84 1019.1
20260902053056 10 158 0.0 4.8 0.00 0.00 0.00 82 1018.9
20260902051557 10 0 0.0 4.8 0.00 0.00 0.00 81 1018.9
20260902050049 10 164 0.0 0.0 0.00 0.00 0.00 81 1018.7
20260902044556 10 0 0.0 0.0 0.00 0.00 0.00 81 1018.8
20260902043114 10 0 0.0 6.4 0.00 0.00 0.00 81 1018.8
20260902041607 10 0 0.0 3.2 0.00 0.00 0.00 81 1018.8
20260902034604 10 0 0.0 6.4 0.00 0.00 0.00 80 1018.8
20260902033054 10 0 0.0 0.0 0.00 0.00 0.00 80 1018.8
20260902031554 10 0 0.0 0.0 0.00 0.00 0.00 80 1018.8
20260902030050 10 0 0.0 0.0 0.00 0.00 0.00 80 1018.9
20260902024548 10 0 0.0 3.2 0.00 0.00 0.00 80 1018.9
20260902023053 10 0 0.0 0.0 0.00 0.00 0.00 80 1019.0
20260902021554 10 0 0.0 0.0 0.00 0.00 0.00 79 1018.8
20260902020050 11 0 0.0 0.0 0.00 0.00 0.00 78 1019.1
20260902014552 11 0 0.0 0.0 0.00 0.00 0.00 78 1019.1
20260902013052 11 0 0.0 0.0 0.00 0.00 0.00 78 1019.2
20260902011556 11 0 0.0 0.0 0.00 0.00 0.00 78 1019.2
20260902010056 11 0 0.0 0.0 0.00 0.00 0.00 78 1019.2
20260902004558 11 0 0.0 0.0 0.00 0.00 0.00 78 1019.3
20260902003125 11 0 0.0 0.0 0.00 0.00 0.00 77 1019.2
20260902001556 12 0 0.0 3.2 0.00 0.00 0.00 76 1019.4
20260902000057 12 0 0.0 0.0 0.00 0.00 0.00 76 1019.5
20260901234549 12 0 0.0 0.0 0.00 0.00 0.00 75 1019.5
20260901233058 12 0 0.0 0.0 0.00 0.00 0.00 75 1019.5
20260901231602 12 0 0.0 0.0 0.00 0.00 0.00 75 1019.4
20260901230053 13 0 0.0 0.0 0.00 0.00 0.00 75 1019.5
20260901224554 13 0 0.0 0.0 0.00 0.00 0.00 74 1019.5
20260901223054 13 0 0.0 0.0 0.00 0.00 0.00 74 1019.6
20260901221556 13 0 0.0 0.0 0.00 0.00 0.00 74 1019.6